Terminal Aerodrome Forecast
Issued by NWS Springfield, MO

Home | Current Version | Previous Version | Text Only | Print | Product List | Glossary On
Versions: 1 2 3 4 5 6 7 8 9 10 11 12 13 14 15 16 17 18 19 20 21 22 23 24 25 26 27 28
000
FTUS43 KSGF 272300
TAFSGF
TAF
KSGF 272320Z 2800/2824 14005KT P6SM SKC
     FM280700 18010KT P6SM SKC WS020/23030KT
     FM281000 19012KT P6SM SKC WS020/23045KT
     FM281400 18018G28KT P6SM SKC=

USA.gov is the U.S. government's official web portal to all federal, state and local government web resources and services.